Regional Weather Roundup
Issued by NWS

Home | Current Version | Previous Version | Text Only | Print | Product List | Glossary Off
Versions: 1 2 3 4 5 6 7 8 9 10 11 12 13 14 15 16 17 18 19 20 21 22 23 24 25 26 27 28 29 30 31 32 33 34 35 36 37 38 39 40 41 42 43 44 45 46 47 48 49 50

000
ASUS43 KDMX 302308
RWRIA

WEATHER ROUNDUP FOR IOWA
NATIONAL WEATHER SERVICE DES MOINES IA
600 PM CDT MON MAY 30 2016

NOTE: "FAIR" INDICATES FEW OR NO CLOUDS BELOW 12,000 FEET WITH NO
SIGNIFICANT WEATHER AND/OR OBSTRUCTIONS TO VISIBILITY.

* - THESE STATIONS ARE NOT NWS STATIONS...THUS NOT UNDER NWS
QUALITY CONTROL.  THEY ALSO DO NOT REPORT WEATHER SUCH
AS PRECIPITATION OR FOG.

IAZ001>003-012>014-020>022-031>034-043>046-310000-
   NORTHWEST IOWA

CITY           SKY/WX    TMP DP  RH WIND       PRES   REMARKS
CARROLL *      MOSUNNY   75  57  53 SE8G21    29.88R
CHEROKEE *     SUNNY     84  55  37 SW7       29.83F HX  83
DENISON *      MOSUNNY   82  57  42 S15G24    29.83F HX  82
LE MARS *      SUNNY     84  57  39 S14       29.81F HX  83
ORANGE CITY *  SUNNY     84  54  34 S13G21    29.83F HX  83
SHELDON *      SUNNY     84  55  37 S13       29.82F HX  83
SIOUX CITY     SUNNY     87  58  37 S16       29.80F HX  86
SPENCER        MOSUNNY   82  55  39 S10       29.84F HX  81
STORM LAKE *   SUNNY     84  48  28 SW12G22   29.86F HX  82
$$

IAZ055>058-069>071-079>083-090>094-310000-
   SOUTHWEST IOWA

CITY           SKY/WX    TMP DP  RH WIND       PRES   REMARKS
ATLANTIC *     PTSUNNY   72  59  64 SW18G26   29.90R
AUDUBON *        N/A     81  63  54 S9        29.90F HX  82
CLARINDA *     FOG       66  63  88 MISG      30.01R VSB 1/2
COUNCIL BLFS * LGT RAIN  72  61  68 SE10G17   29.91R
CRESTON *      SUNNY     81  57  44 S17       29.92S HX  81
HARLAN  *      SUNNY     73  57  56 S23G32    29.91S
LAMONI         CLOUDY    78  64  61 S13       29.93R HX  80
RED OAK *      MOSUNNY   72  59  64 SE7G13    29.92F
SHENANDOAH *   SUNNY     72  64  78 NE7       29.91F
$$

IAZ047>049-059>061-072>074-084-310000-
   CENTRAL IOWA

CITY           SKY/WX    TMP DP  RH WIND       PRES   REMARKS
AMES           CLOUDY    73  61  65 NW6       29.90F
ANKENY *       MOSUNNY   84  59  42 S14       29.89S HX  84
BOONE *        CLOUDY    73  61  64 SE7       29.90S
CHARITON *     MOSUNNY   84  61  45 S16       29.92S HX  84
DES MOINES     PTSUNNY   86  58  38 S15       29.89F HX  85
GRINNELL*      MOSUNNY   86  57  37 S9        29.91F HX  85
KNOXVILLE *    MOSUNNY   86  61  42 S9G20     29.90S HX  86
MARSHALLTOWN   CLOUDY    82  59  45 S8        29.89F HX  82
NEWTON *       MOSUNNY   86  59  39 S16       29.90F HX  85
PELLA *        SUNNY     86  57  37 S12G17    29.91F HX  85
PERRY *        LGT RAIN  72  59  64 SE41G53   29.88R
$$

IAZ004>006-015-016-023>025-035-036-310000-
   NORTH CENTRAL IOWA

CITY           SKY/WX    TMP DP  RH WIND       PRES   REMARKS
ALGONA *       PTSUNNY   73  59  60 VRB5G12   29.88F
CLARION *      RAIN      72  61  68 SE17G30   29.90R
ESTHERVILLE    PTSUNNY   82  58  43 S7        29.85F HX  82
FORT DODGE *   CLOUDY    84  57  39 S14       29.87F HX  83
MASON CITY     MOSUNNY   80  60  50 SE13      29.90F HX  81
FOREST CITY *  SUNNY     77  59  53 E8        29.88F
WEBSTER CITY * MOSUNNY   75  55  50 S20G26    29.87F
IOWA FALLS *     N/A     77  57  50 S16G24    29.91F
$$

IAZ007>011-017>019-026>030-037>042-050>054-066-310000-
   NORTHEAST IOWA

CITY           SKY/WX    TMP DP  RH WIND       PRES   REMARKS
CEDAR RAPIDS   SUNNY     84  64  50 SE8       29.92F HX  85
CHARLES CITY * SUNNY     81  57  44 SE9       29.91F HX  81
CLINTON *      SUNNY     85  58  39 SW8       29.95F HX  84
DECORAH *      SUNNY     81  52  36 S8        29.95F HX  80
DUBUQUE        SUNNY     82  54  37 NE7       29.97F HX  81
MONTICELLO *   SUNNY     84  59  42 S7        29.94F HX  84
OELWEIN *      SUNNY     81  57  44 SE10      29.94F HX  81
WATERLOO       PTSUNNY   80  62  54 SE7       29.89F HX  81
$$

IAZ064-065-067-068-078-310000-
   EAST CENTRAL IOWA

CITY           SKY/WX    TMP DP  RH WIND       PRES   REMARKS
DAVENPORT      SUNNY     85  58  39 SW8       29.95F HX  84
IOWA CITY      MOSUNNY   84  64  50 S12       29.94F HX  85
MT. PLEASANT * CLOUDY    84  66  54 S8        29.95S HX  86
MUSCATINE *    SUNNY     86  64  48 S6        29.94F HX  87
QUAD CITIES    SUNNY     87  59  38 SW10      29.93F HX  86
$$

IAZ062-063-075>077-085>089-095>099-310000-
   SOUTHEAST IOWA

CITY           SKY/WX    TMP DP  RH WIND       PRES   REMARKS
BURLINGTON     CLOUDY    83  64  52 S12       29.95F HX  84
FAIRFIELD *      N/A    N/A N/A N/A MISG        N/A
FORT MADISON * SUNNY     84  63  48 S7        29.96F HX  85
KEOKUK *       SUNNY     82  68  61 S6        29.95F HX  85
OSKALOOSA *      N/A     88  57  35 S17       29.92S HX  86
OTTUMWA        CLOUDY    84  63  49 S15       29.92F HX  85
WASHINGTON *   SUNNY     86 -27   1 S14       29.94F HX  81
$$

ABBREVIATIONS USED IN REMARKS
   TC - TEMPERATURES IN CELSIUS
  WCI - WIND CHILL INDEX
   HX - HEAT INDEX
  VSB - VISIBILITY
$$




USA.gov is the U.S. government's official web portal to all federal, state and local government web resources and services.